Regional Weather Roundup
Issued by NWS

Home | Current Version | Previous Version | Text Only | Print | Product List | Glossary Off
Versions: 1 2 3 4 5 6 7 8 9 10 11 12 13 14 15 16 17 18 19 20 21 22 23 24 25 26 27 28 29 30 31 32 33 34 35 36 37 38 39 40 41 42 43 44 45 46 47 48 49 50

000
ASUS43 KTOP 230859
RWRKS

WEATHER ROUNDUP FOR KANSAS
NATIONAL WEATHER SERVICE GOODLAND KS
400 AM CDT WED JUL 23 2014

NOTE:  "FAIR" INDICATES FEW OR NO CLOUDS BELOW 12,000 FEET WITH NO
SIGNIFICANT WEATHER AND/OR OBSTRUCTIONS TO VISIBILITY.

KSZ001>006-013>018-027>032-041>047-231000-
NORTHWEST KANSAS

CITY           SKY/WX    TMP DP  RH WIND       PRES   REMARKS
GOODLAND       CLEAR     68  66  93 E6        30.24F
HAYS           MOCLDY    66  64  94 NE9       30.18R
HILL CITY      CLEAR     73  68  84 E7        30.21S
RUSSELL        CLEAR     75  69  81 NE8       30.15F
$$

KSZ061>065-074>080-084>089-231000-
SOUTHWEST KANSAS

CITY           SKY/WX    TMP DP  RH WIND       PRES   REMARKS
DODGE CITY     CLEAR     71  60  68 SW5       30.18F
ELKHART          N/A     71  64  78 W6          N/A
GARDEN CITY    CLEAR     71  63  75 S7        30.20F
GREAT BEND     CLEAR     75  72  88 NE8       30.14F
LIBERAL        CLEAR     72  64  78 S3        30.22F
PRATT          CLEAR     70  66  88 SW7       30.14F
$$

KSZ066>073-081>083-090>101-231000-
SOUTHEAST KANSAS

CITY           SKY/WX    TMP DP  RH WIND       PRES   REMARKS
CHANUTE        CLEAR     78  74  87 SW5       30.08F
COFFEYVILLE    PTCLDY    76  74  93 NE3       30.07S
HUTCHINSON     CLEAR     75  68  78 CALM      30.12F
MEDICINE LODGE   N/A     75  71  87 SE3       30.11F
NEWTON         PTCLDY    77  66  69 S5        30.15F
PARSONS        CLEAR     77  74  90 N7        30.10R
WICHITA INTL   CLEAR     76  72  87 W7        30.10F
WICHITA JABRA  CLEAR     78  72  81 N8        30.11S
WINFIELD       CLEAR     75  74  96 CALM      30.11S
$$

KSZ007>012-019>026-033>040-048>060-102>105-231000-
NORTHEAST KANSAS

CITY           SKY/WX    TMP DP  RH WIND       PRES   REMARKS
CONCORDIA      CLEAR     73  69  87 NE6       30.16F
EMPORIA        CLEAR     78  75  90 N5        30.10F
LAWRENCE       CLEAR     78  70  76 N6        30.09F HAZE
MANHATTAN      CLEAR     77  69  76 NE9       30.13S
OLATHE IND     CLEAR     78  72  81 N7        30.09F
OLATHE EXE     CLEAR     79  70  74 NE10      30.08F
SALINA         PTCLDY    81  71  71 NE8       30.13F
TOPEKA BILLARD PTCLDY    78  71  79 N7        30.11S
TOPEKA FORBES  CLEAR     78  71  79 N6        30.11S
$$



USA.gov is the U.S. government's official web portal to all federal, state and local government web resources and services.